Syracuse, NY

3:59 PM EST on December 09, 2019 (GMT -0500)
Syracuse Hancock International

Weather History for KSYR - October, 2019

Change the Weather History Date:

Thursday, October 31, 2019

  Actual Average Record
Temperature  
Mean Temperature 62 °F 46 °F  
Max Temperature 70 °F 55 °F 75 °F (2003)
Min Temperature 53 °F 37 °F 20 °F (1925)
Degree Days  
Heating Degree Days 4 19  
Month to date heating degree days 360 452  
Since 1 July heating degree days 435 617  
Cooling Degree Days 0 0  
Month to date cooling degree days 11 4  
Year to date cooling degree days 622 569  
Growing Degree Days 12 (Base 50)    
Moisture  
Dew Point 59 °F    
Average Humidity 89    
Maximum Humidity 96    
Minimum Humidity 78    
Precipitation  
Precipitation 1.95 in 0.11 in 0.84 in (1976)
Month to date precipitation 6.88 3.44  
Year to date precipitation 41.01 31.72  
Snow  
Snow 0.00 in 0.10 in 0.80 in (1993)
Month to date snowfall 0.0 0.4  
Since 1 July snowfall T 0.4  
Since 1 September snowfall T 0.4  
Snow Depth 0.00 in    
Sea Level Pressure  
Sea Level Pressure 29.60 in    
Wind  
Wind Speed 7 mph ()    
Max Wind Speed 29 mph    
Max Gust Speed 41 mph    
Visibility 6.8 miles    
Events Rain    
T = Trace of Precipitation, MM = Missing Value Source: Averaged Metar Reports

Daily Weather History Graph

Daily Weather History Graph

Search for Another Location

Airport or City:

Astronomy

Oct. 31, 2019 Rise Set
Actual Time 7:37 AM EDT 5:57 PM EDT
Civil Twilight 7:08 AM EDT 6:27 PM EDT
Nautical Twilight 6:34 AM EDT 7:00 PM EDT
Astronomical Twilight 6:01 AM EDT 7:33 PM EDT
Moon 11:28 AM EDT (10/31) 8:47 PM EDT (10/31)
Length of Visible Light 11h 19m
Length of Day
10h 20m
Waxing Crescent, 15% of the Moon is Illuminated
Oct 31
Waxing Crescent
Nov 4
First Quarter
Nov 12
Full
Nov 19
Last Quarter
Nov 26
New

Hourly Weather History & Observations

Time (EDT) Temp. Dew Point Humidity Pressure Visibility Wind Dir Wind Speed Gust Speed Precip Events Conditions
12:54 AM 57.0 °F 53.1 °F 87% 29.95 in 10.0 mi ENE 3.5 mph - 0.00 in Rain Light Rain
1:54 AM 57.0 °F 55.0 °F 93% 29.92 in 5.0 mi ENE 4.6 mph - 0.12 in Rain Light Rain
2:10 AM 57.0 °F 55.0 °F 93% 29.92 in 3.0 mi ENE 4.6 mph - 0.05 in Rain Rain
2:29 AM 57.0 °F 55.0 °F 93% 29.90 in 4.0 mi East 8.1 mph - 0.10 in Rain Light Rain
2:54 AM 57.0 °F 55.0 °F 93% 29.86 in 4.0 mi East 11.5 mph - 0.12 in Rain Light Rain
3:43 AM 57.9 °F 55.9 °F 93% 29.86 in 10.0 mi East 6.9 mph - 0.00 in Rain Light Rain
3:54 AM 57.0 °F 55.9 °F 96% 29.84 in 10.0 mi East 5.8 mph - 0.00 in Rain Light Rain
4:31 AM 57.9 °F 55.9 °F 93% 29.84 in 10.0 mi ENE 8.1 mph - 0.00 in   Overcast
4:54 AM 57.9 °F 55.9 °F 93% 29.83 in 10.0 mi East 3.5 mph - 0.00 in   Overcast
5:54 AM 57.9 °F 55.9 °F 93% 29.81 in 10.0 mi East 4.6 mph - N/A   Overcast
6:06 AM 57.9 °F 55.9 °F 93% 29.81 in 10.0 mi East 5.8 mph - 0.00 in Rain Light Rain
6:54 AM 59.0 °F 55.0 °F 87% 29.77 in 10.0 mi Calm Calm - 0.00 in Rain Light Rain
7:54 AM 57.9 °F 55.9 °F 93% 29.77 in 10.0 mi Calm Calm - 0.00 in   Mostly Cloudy
8:16 AM 59.0 °F 55.9 °F 90% 29.78 in 10.0 mi Calm Calm - 0.00 in   Overcast
8:50 AM 60.8 °F 59.0 °F 94% 29.79 in 1.8 mi South 4.6 mph - 0.03 in Rain Rain
8:54 AM 61.0 °F 59.0 °F 93% 29.78 in 1.8 mi SSE 3.5 mph - 0.04 in Rain Light Rain
9:10 AM 61.0 °F 57.9 °F 90% 29.78 in 3.0 mi Calm Calm - 0.04 in Rain Light Rain
9:54 AM 61.0 °F 57.9 °F 90% 29.75 in 10.0 mi NE 4.6 mph - 0.04 in   Overcast
10:54 AM 63.0 °F 59.0 °F 87% 29.72 in 10.0 mi NE 4.6 mph - N/A   Overcast
11:54 AM 66.9 °F 60.1 °F 79% 29.68 in 10.0 mi South 13.8 mph 19.6 mph 0.00 in Rain Light Rain
12:01 PM 66.2 °F 59.0 °F 78% 29.68 in 10.0 mi South 12.7 mph 24.2 mph N/A Rain Light Rain
12:54 PM 64.9 °F 61.0 °F 87% 29.63 in 10.0 mi SSE 4.6 mph - 0.07 in Rain Light Rain
1:54 PM 64.9 °F 61.0 °F 87% 29.57 in 6.0 mi SE 5.8 mph - 0.08 in Rain Light Rain
2:24 PM 64.9 °F 62.1 °F 90% 29.54 in 1.8 mi SE 5.8 mph - 0.10 in Rain Heavy Rain
2:42 PM 64.0 °F 62.1 °F 93% 29.53 in 2.5 mi East 6.9 mph - 0.21 in Rain Rain
2:45 PM 64.0 °F 62.1 °F 93% 29.53 in 2.5 mi East 6.9 mph - 0.21 in Rain Light Rain
2:54 PM 64.0 °F 62.1 °F 93% 29.51 in 3.0 mi East 4.6 mph - 0.24 in Rain Rain
3:54 PM 64.9 °F 63.0 °F 93% 29.46 in 10.0 mi ENE 4.6 mph - 0.11 in Rain Light Rain
4:54 PM 69.1 °F 64.0 °F 84% 29.42 in 10.0 mi SSE 9.2 mph - 0.01 in Rain Light Rain
5:54 PM 70.0 °F 64.9 °F 84% 29.39 in 7.0 mi South 12.7 mph - 0.03 in Rain Light Rain
6:26 PM 68.0 °F 64.9 °F 90% 29.39 in 4.0 mi West 11.5 mph - 0.06 in Rain Rain
6:30 PM 68.0 °F 64.9 °F 90% 29.40 in 1.5 mi SSW 9.2 mph - 0.14 in Rain Heavy Rain
6:37 PM 68.0 °F 64.9 °F 90% 29.39 in 4.0 mi SSW 24.2 mph 34.5 mph 0.30 in Rain Rain
6:54 PM 66.9 °F 62.1 °F 84% 29.40 in 10.0 mi SSW 15.0 mph 26.5 mph 0.32 in Rain Light Rain
7:01 PM 66.9 °F 62.1 °F 84% 29.40 in 10.0 mi South 11.5 mph - 0.01 in Rain Light Rain
7:54 PM 66.9 °F 63.0 °F 87% 29.35 in 10.0 mi SSW 6.9 mph - 0.14 in Rain Light Rain
8:54 PM 66.9 °F 63.0 °F 87% 29.32 in 6.0 mi South 5.8 mph - 0.06 in Rain Light Rain
9:36 PM 66.0 °F 63.0 °F 90% 29.34 in 1.8 mi West 10.4 mph - 0.08 in Rain Rain
9:42 PM 66.9 °F 63.0 °F 87% 29.33 in 1.2 mi SW 17.3 mph 21.9 mph 0.33 in Rain Heavy Rain
9:54 PM 66.9 °F 63.0 °F 87% 29.31 in 7.0 mi SW 12.7 mph - 0.47 in Rain Light Rain
10:21 PM 64.9 °F 60.1 °F 84% 29.35 in 10.0 mi West 28.8 mph 38.0 mph 0.02 in Rain Light Rain
10:30 PM 60.1 °F 55.9 °F 86% 29.37 in 8.0 mi West 23.0 mph 41.4 mph 0.02 in Rain Light Rain
10:48 PM 57.2 °F 53.6 °F 88% 29.41 in 5.0 mi West 23.0 mph 36.8 mph 0.02 in Rain Light Rain
10:54 PM 57.0 °F 53.1 °F 87% 29.41 in 4.0 mi West 24.2 mph 33.4 mph 0.04 in Rain Light Rain
11:54 PM 54.0 °F 51.1 °F 90% 29.42 in 10.0 mi West 11.5 mph 23.0 mph 0.04 in Rain Light Rain